Weather in Kelmentsi

Ukraine / Chernovtci District     48˚27′48″N   26˚49′45″E
temp.,
°C
wind,
m/s
gust,
m/s
humid.,
%
clouds,
%
prec.,
mm/h
press.,
hPa
HPBL,
m
29 november, sun
sun2923:00wsw239786 0.0 1020100
02:00w229484 0.0 102034
05:00−1˚wsw239480 0.0 102076
08:00−1˚w129471 0.0 102151
11:00+1˚w127892 0.0 1021397
14:00+2˚sw117095 0.0 1021573
17:00sw0195100 0.1 102158
20:00−1˚se019598 0.1 102223
30 november, mon
mon3023:00−1˚w119638 0.0 102323
02:00−1˚nnw129663 0.1 102463
05:00−2˚n229583 0.0 102451
08:00−2˚n129549 0.0 102634
11:00+1˚nw237425 0.0 1027490
14:00+2˚nw346315 0.0 1026782
17:00−1˚nnw33750 0.0 102748
20:00−2˚nnw23820 0.0 102874
1 december, tue
tue123:00−3˚n23850 0.0 102968
02:00−3˚n12840 0.0 102966
05:00−3˚ne12850 0.0 102944
08:00−4˚ne12880 0.0 102941
11:00−1˚ene23690 0.0 1028430
14:00+1˚ne23600 0.0 1027583
17:00−2˚ne23740 0.0 102737
20:00−2˚ene25789 0.0 1028137
2 december, wed
wed223:00−2˚ene238978 0.0 102798
02:00−2˚ne129577 0.0 102751
05:00−2˚ene239569 0.0 1026163
08:00−1˚ene239584 0.1 1026160
11:00ene229498 0.2 1026190
14:00+1˚e129599 0.3 1024165
17:00ese1298100 0.1 102460
20:00se1292100 0.1 102532
3 december, thu
thu323:00sse2298100 0.1 1024136
02:00−1˚ese229499 0.2 102435
05:00ese369199 0.0 1023264
08:00−2˚ese379687 0.0 1023182
11:00+2˚sse587432 0.0 1023789
14:00+2˚se587165 0.0 1021824
17:00ese498466 0.0 1020228
20:00+1˚se5108876 0.0 1020418